Dewpoint
54 54 53 54 54 54 54 54 54 55 55 55 55 56 56 57 57 58 58 58 58 59 59 60 60 60 60 61 61 61 58 55 48 46 41 51 60 63 63 65 65 65 66 55 46 35 23 22 20 21 32 40 44 42 44 44 40 46 33 28 27 19 23 25 18 19 23 20 17 19 17 15 18 20 23 24 22 22 22 21 27 28 30 34 50 57 58 58
53 53 53 54 53 53 54 54 54 54 54 55 55 55 56 56 57 57 58 58 58 59 59 60 60 60 61 61 61 60 57 58 48 38 42 57 62 64 64 64 65 64 63 49 32 22 20 15 17 16 26 31 45 40 42 43 43 39 27 24 21 25 25 15 15 19 15 19 16 18 17 15 17 19 21 16 17 18 17 21 23 26 33 34 44 56 56 56
53 53 53 54 53 53 54 54 53 53 54 54 54 55 55 56 56 56 57 57 58 58 59 60 60 60 60 60 60 59 59 54 44 39 53 63 62 63 64 64 64 65 54 45 38 27 19 17 15 13 19 21 30 34 39 37 36 32 34 25 24 28 20 18 19 19 20 20 15 16 17 16 17 18 22 19 12 15 14 15 19 22 28 33 40 52 55 55
53 53 53 53 53 53 53 53 53 53 53 54 54 54 55 55 55 56 56 57 58 58 59 59 60 60 60 60 60 59 56 57 33 42 53 62 62 63 62 63 62 59 56 52 45 30 23 20 16 13 29 26 26 35 29 35 31 30 27 28 30 18 23 20 21 20 20 19 19 16 18 18 20 20 20 17 13 14 15 15 16 19 22 31 36 50 54 55
53 53 52 53 53 52 52 52 53 53 53 53 54 54 54 55 55 56 56 57 57 58 58 59 59 60 60 60 59 59 58 24 29 48 51 61 62 61 60 61 62 51 43 41 32 23 20 16 16 19 29 13 24 25 16 29 31 33 17 24 22 19 20 23 22 24 22 21 20 19 17 18 21 23 21 18 13 14 18 24 18 17 20 31 33 48 53 55
53 53 53 53 53 52 52 52 52 53 53 53 53 54 54 55 55 56 56 56 57 57 58 59 59 59 60 59 57 59 51 9 42 52 57 60 60 59 59 62 61 54 38 30 26 27 23 17 17 25 19 13 12 11 14 17 24 21 22 20 21 21 22 24 24 26 23 22 19 19 22 22 21 20 19 19 16 18 24 26 26 27 29 32 33 46 49 53
53 53 53 53 52 51 52 52 52 53 53 54 53 54 54 55 55 56 56 56 57 57 58 59 59 59 59 58 58 52 36 36 41 57 61 59 60 59 56 58 61 46 34 32 25 28 23 17 15 18 14 16 11 9 17 18 23 22 16 19 21 23 22 25 23 27 22 22 21 23 23 21 20 19 21 18 17 18 25 27 25 27 32 33 34 42 44 49
54 53 53 52 52 52 52 52 52 53 53 53 53 54 54 55 55 56 56 57 57 57 58 58 59 59 57 58 50 37 41 33 48 54 55 59 51 45 55 52 45 51 39 31 26 18 23 16 12 23 11 11 12 14 21 17 15 14 15 21 24 24 25 23 22 22 24 24 22 24 23 19 20 22 22 21 22 21 24 26 26 26 27 32 35 39 41 44
54 53 53 52 52 52 52 52 52 52 53 54 54 54 54 55 55 56 56 56 57 57 58 58 58 59 57 52 46 35 16 51 50 46 50 50 44 41 54 46 45 35 31 28 28 29 32 22 13 19 12 15 15 16 17 10 17 12 20 22 22 22 22 22 23 24 24 23 25 23 21 21 22 23 20 20 20 21 23 25 27 26 24 25 33 36 39 41
53 53 53 53 52 52 51 52 52 52 53 53 54 54 54 55 55 56 56 57 57 57 57 58 58 58 55 52 44 20 50 48 48 44 48 45 40 40 43 49 40 36 31 29 30 28 29 27 30 28 34 17 19 21 25 20 22 24 20 22 22 22 23 26 24 23 25 26 22 22 20 21 24 22 16 23 25 21 23 24 26 27 26 24 26 33 36 39
54 53 53 52 52 51 51 51 51 52 53 53 54 54 54 54 55 56 56 56 57 57 57 58 58 57 57 43 30 10 53 52 48 42 44 47 43 42 48 46 40 42 34 32 39 34 38 31 38 32 31 15 22 21 23 28 26 24 22 22 23 24 25 24 24 22 23 24 23 23 21 24 24 27 19 23 28 27 23 23 22 26 26 25 26 25 33 34
54 53 51 51 51 51 52 51 52 52 53 53 53 54 54 54 55 55 56 57 57 57 57 58 58 56 45 35 24 34 46 46 45 42 50 48 47 51 51 45 45 51 39 33 44 48 47 43 40 22 20 28 13 21 24 26 26 23 22 19 21 22 22 22 22 23 26 24 25 25 23 20 23 21 20 22 26 25 23 23 22 23 26 28 26 26 29 30
53 53 52 52 51 51 52 52 52 53 53 53 53 54 54 55 55 56 56 57 57 58 58 58 58 58 54 23 44 51 49 45 48 42 45 47 46 44 49 49 51 44 44 37 42 47 49 43 40 29 34 26 20 17 29 28 24 24 23 21 19 20 18 22 24 25 25 25 26 24 18 16 16 20 21 24 25 25 24 23 22 23 25 26 27 26 29 31
54 54 53 53 53 52 52 53 52 53 53 53 53 54 54 55 55 56 56 57 58 58 58 57 57 49 40 19 45 50 47 48 49 43 48 50 42 51 47 50 48 43 48 38 47 45 51 42 47 29 37 25 23 34 26 25 25 20 18 22 23 19 20 21 24 24 22 27 27 25 22 15 16 21 24 29 26 24 23 22 22 22 22 24 29 29 31 33
54 54 54 53 52 52 52 53 53 54 53 54 54 54 55 55 56 56 57 57 57 58 58 57 56 51 23 34 47 48 60 50 43 46 50 45 43 47 42 41 40 38 35 39 44 46 37 46 44 25 25 29 29 26 19 20 19 21 17 19 23 22 28 25 26 22 18 25 25 23 26 18 17 23 28 28 27 26 23 23 22 23 22 23 26 29 31 32
55 55 54 54 54 53 53 53 54 55 54 54 54 55 55 56 56 56 57 57 58 58 57 57 56 46 22 21 48 57 51 41 41 51 47 49 51 46 45 45 46 44 36 36 40 39 36 42 32 35 24 26 23 24 19 23 21 22 20 26 22 23 25 23 24 27 28 24 26 21 18 16 16 24 25 25 25 25 24 23 23 22 23 25 24 26 28 30
56 56 56 55 54 54 54 54 55 55 55 54 55 56 56 57 56 57 58 58 57 56 55 42 32 31 19 39 33 40 34 50 48 51 48 45 48 42 45 47 39 39 43 42 46 47 37 29 34 34 34 18 20 28 24 24 24 23 25 20 30 21 18 19 24 26 32 25 22 23 21 19 19 21 25 27 26 25 24 23 23 23 25 25 28 26 27 28
55 55 56 56 56 55 55 55 56 55 55 55 55 56 55 56 57 55 56 56 56 50 49 38 42 40 18 29 27 32 44 43 52 46 48 41 47 42 45 34 39 37 42 34 41 34 37 32 33 26 25 27 17 21 23 21 24 23 21 22 19 25 18 15 20 24 26 24 22 21 22 21 20 20 20 21 25 24 23 23 22 22 22 23 25 26 27 27
56 56 56 56 56 56 56 56 56 55 55 56 57 56 56 56 58 54 48 45 42 30 31 29 24 14 22 19 41 43 49 48 48 50 42 45 49 44 44 39 43 30 34 27 27 30 36 36 35 32 24 21 17 17 21 26 17 15 24 25 20 21 18 13 23 25 24 22 21 20 18 18 19 20 20 21 21 23 23 23 22 22 22 22 22 25 27 30
56 56 57 56 56 56 56 56 56 55 56 54 56 53 55 47 46 35 41 43 29 34 34 28 18 25 37 38 43 44 49 51 38 44 48 48 45 43 37 33 47 39 34 32 36 32 39 33 29 29 27 18 18 18 20 16 15 13 24 24 15 21 20 24 25 26 26 21 18 17 17 16 16 15 15 15 16 20 20 21 23 24 24 25 24 24 25 26
57 57 57 57 57 57 57 56 56 55 56 54 53 51 23 22 21 17 30 29 32 38 34 31 35 35 36 43 44 42 35 37 41 43 50 52 43 37 31 33 35 34 31 31 35 31 37 31 31 25 20 16 15 16 20 18 14 17 26 26 18 29 19 24 26 26 26 23 19 15 15 16 16 17 19 19 18 17 17 17 18 18 23 27 28 27 27 26
57 57 57 57 57 57 56 56 55 55 56 54 53 47 38 46 46 48 42 17 40 42 43 40 35 34 41 39 42 46 47 31 41 46 50 49 39 33 30 29 25 25 33 32 29 29 28 28 23 23 22 21 20 20 18 19 26 25 21 23 25 23 23 25 25 25 27 25 18 17 17 18 19 19 19 19 18 18 17 18 17 18 20 24 26 27 28 31
57 57 57 57 57 57 56 57 56 55 53 52 48 44 45 51 52 52 50 38 31 43 38 40 27 32 37 40 45 43 32 25 31 43 40 49 36 35 28 24 25 25 28 25 27 29 27 25 17 24 23 20 20 19 20 26 29 25 25 21 22 30 23 20 23 25 24 22 19 20 21 21 22 21 19 16 15 15 16 17 20 24 23 25 25 25 28 30
57 57 57 57 57 56 57 56 56 55 53 52 51 48 54 55 54 51 50 35 33 32 37 36 34 33 34 31 40 37 31 24 35 36 43 44 29 39 35 24 22 24 24 22 19 22 23 27 26 23 26 20 24 25 23 21 18 29 31 27 25 31 27 25 21 23 22 24 27 26 27 25 24 23 21 20 20 18 18 22 22 29 33 30 34 35 35 29
57 57 57 57 57 57 56 56 53 51 53 51 47 51 54 55 55 54 48 25 26 37 43 42 44 42 37 47 48 33 29 34 41 36 44 43 30 29 28 27 24 19 25 22 19 24 24 27 32 23 30 21 30 21 27 31 19 25 31 28 25 25 23 31 32 27 21 20 32 34 16 22 19 16 17 21 25 22 23 25 26 27 31 34 32 32 36 41
57 57 57 57 57 57 56 53 52 53 47 45 49 53 54 54 54 49 42 24 21 32 34 23 35 20 44 36 46 45 29 24 41 46 45 47 47 33 27 25 24 24 18 24 17 23 25 30 35 34 32 31 32 30 32 31 23 21 22 38 34 26 32 30 28 27 21 16 31 31 18 19 16 12 10 9 10 9 11 25 25 24 28 30 32 34 35 37
58 57 57 57 57 57 53 50 53 51 45 48 53 53 54 53 51 52 26 24 15 30 16 43 30 31 44 33 36 30 16 23 47 47 42 47 36 44 22 20 24 25 27 27 26 22 29 28 35 34 36 35 33 26 34 26 25 18 37 40 33 33 31 31 30 29 25 31 32 30 26 18 14 10 14 16 14 13 13 13 15 17 26 27 30 35 37 38
57 58 57 58 57 56 54 53 51 49 48 49 53 53 55 53 55 51 29 16 17 31 31 26 36 43 45 38 45 15 28 32 29 36 42 47 46 34 26 22 22 25 26 29 20 37 29 32 36 35 34 33 29 33 36 31 26 31 35 39 35 35 35 34 30 27 27 26 25 28 31 22 24 24 22 20 17 16 14 12 15 18 22 25 31 34 38 38
56 57 57 57 57 56 55 54 53 50 52 54 53 53 55 51 46 37 19 15 34 25 39 23 44 42 39 37 30 28 28 33 29 38 45 40 44 34 23 24 23 18 24 26 19 35 35 37 36 36 32 28 35 34 40 35 27 35 39 37 37 37 35 34 28 27 26 21 20 28 31 17 12 24 17 17 18 17 16 13 11 18 26 34 34 35 36 41
55 56 57 57 57 56 55 55 53 54 55 54 54 54 54 50 40 23 17 11 32 24 31 32 33 30 31 27 23 26 25 33 36 39 36 31 39 42 29 33 29 25 30 29 35 35 32 33 36 37 34 35 34 34 38 37 37 38 38 35 33 32 30 28 27 24 21 18 18 29 31 18 14 19 14 18 25 20 17 15 18 32 35 37 39 39 39 40
55 56 56 57 55 55 55 52 54 54 54 55 54 53 48 42 30 15 15 22 35 36 32 27 28 31 26 22 20 23 27 33 35 33 31 34 31 31 29 28 33 33 29 30 30 34 34 34 33 36 35 34 34 36 37 39 38 39 32 27 29 26 26 24 23 25 15 14 24 27 31 26 13 17 19 15 13 17 17 10 20 29 34 38 38 39 41 40
54 55 56 57 58 57 53 52 53 56 55 55 54 47 38 26 28 22 17 25 24 29 28 26 30 27 22 24 29 21 24 31 33 30 29 31 30 27 26 23 28 24 24 24 24 34 32 35 36 37 37 34 35 32 33 36 36 37 28 24 19 18 20 18 22 21 19 11 22 23 29 23 21 10 15 16 13 13 18 19 25 24 31 37 39 39 39 40
53 54 56 57 56 55 57 54 56 56 54 53 48 47 35 24 16 23 25 24 21 33 30 31 28 24 24 24 27 24 35 27 32 29 32 34 29 29 30 24 27 23 18 25 24 26 28 34 36 36 34 36 37 27 27 24 30 32 24 23 19 10 15 11 19 20 20 22 24 25 26 18 17 16 16 15 16 14 18 29 33 31 29 31 35 41 42 42
52 54 56 56 57 57 55 54 54 54 51 49 43 38 36 21 19 29 26 26 34 36 33 35 28 28 24 20 29 27 27 31 31 29 31 31 30 27 27 28 26 26 26 24 20 26 19 25 32 32 27 36 35 27 27 26 28 28 27 25 22 17 10 9 12 13 16 20 21 25 16 21 15 17 19 23 24 25 24 25 31 33 34 35 36 37 37 44
52 53 56 56 56 57 55 54 53 54 50 45 42 34 25 22 25 23 23 33 33 33 33 34 30 28 25 35 35 28 31 31 32 31 30 31 26 27 26 24 27 27 29 19 25 24 22 22 34 33 35 33 32 35 33 33 28 30 30 30 22 21 15 11 19 16 18 19 19 20 19 22 19 23 23 22 21 19 22 26 27 26 31 35 35 35 36 37
51 54 56 54 55 55 55 54 54 53 50 41 34 30 25 26 26 32 31 35 31 34 30 31 33 28 23 30 35 29 37 35 33 33 32 32 30 26 29 29 26 24 24 17 25 20 23 18 35 36 36 30 31 36 34 30 19 27 28 25 26 28 24 18 21 23 18 14 15 22 23 22 20 11 14 16 14 12 13 21 26 25 27 37 37 32 33 40
48 52 49 52 54 55 55 54 54 52 50 43 33 28 31 39 41 39 40 35 33 30 30 26 29 26 27 27 31 32 33 38 34 32 28 34 29 30 29 29 29 25 24 22 23 27 23 29 33 34 33 35 36 39 37 38 38 29 24 27 31 34 31 21 14 21 16 13 10 13 11 8 9 9 17 11 12 10 12 11 11 15 18 25 30 33 33 36
45 46 47 48 53 55 55 54 53 51 47 41 33 33 38 36 43 43 41 40 33 32 30 27 31 30 27 26 28 29 34 26 33 32 28 29 26 32 29 29 28 26 23 26 20 28 26 19 28 35 36 36 37 34 33 39 36 34 31 38 24 21 19 21 16 10 8 9 13 13 11 12 11 9 8 9 12 14 14 19 17 21 25 26 29 33 37 41
45 44 40 46 54 54 53 52 51 48 43 37 34 34 38 39 43 43 43 42 41 38 30 30 30 30 29 25 27 29 30 24 33 30 25 29 23 32 28 30 33 28 28 26 22 26 29 19 26 31 35 35 34 31 26 28 34 36 34 30 35 26 23 21 19 16 13 13 5 12 10 12 18 13 14 15 14 16 13 12 12 14 20 22 26 39 42 40
41 39 37 53 54 53 53 52 48 45 40 33 34 35 42 37 40 42 44 45 42 38 34 33 32 30 29 30 30 28 31 27 30 30 26 31 26 31 27 31 32 32 27 26 27 31 24 24 20 29 34 31 27 29 26 29 27 26 25 25 28 25 29 26 24 19 15 9 11 8 9 13 14 13 14 15 13 16 15 22 29 30 29 28 34 43 44 43
42 38 37 54 53 53 51 48 43 39 38 40 40 38 42 39 41 41 42 45 44 45 41 40 40 32 33 29 31 32 30 28 30 29 27 29 25 26 33 31 33 33 32 31 29 29 21 20 21 27 27 28 28 31 30 31 28 26 25 25 26 25 23 18 18 22 21 15 12 9 11 17 16 12 11 13 16 20 30 27 29 27 23 26 32 41 43 41
35 28 34 53 53 51 47 40 40 43 41 38 37 39 39 43 42 42 42 44 43 44 44 40 42 39 39 35 37 35 32 29 30 30 30 26 31 29 37 33 29 34 30 28 27 31 24 26 22 26 27 28 29 37 34 38 36 31 26 24 27 26 24 22 16 19 21 22 20 21 18 17 17 17 17 17 17 23 31 27 22 22 22 26 36 40 40 40
35 24 46 51 53 50 46 39 40 40 39 39 42 41 43 43 41 42 41 42 40 42 42 41 40 40 39 40 40 38 36 32 31 29 32 31 33 33 38 35 36 35 34 30 32 34 31 25 21 24 31 36 35 37 37 37 36 33 33 32 27 25 25 23 21 21 25 21 19 20 18 18 19 18 20 22 25 34 29 24 22 23 29 36 36 37 39 39
34 33 42 50 53 50 42 34 34 37 38 40 40 39 42 42 40 41 40 41 39 40 39 40 41 41 40 42 40 36 39 30 35 35 32 36 34 42 35 39 36 33 33 30 28 33 24 26 25 22 20 26 29 30 30 33 33 29 28 33 33 32 30 28 25 24 20 25 23 22 17 19 21 33 27 28 26 23 22 22 28 29 33 35 37 38 40 39
33 36 35 44 48 48 39 36 34 35 36 37 38 37 38 40 42 40 40 40 41 40 39 39 39 44 41 42 41 40 41 36 33 40 39 39 37 41 41 39 33 32 38 43 38 36 29 29 25 22 20 18 20 23 24 26 28 28 30 31 33 32 33 26 25 25 22 23 25 22 20 20 20 21 22 27 26 25 25 25 30 32 33 34 35 37 38 39
28 25 30 34 43 43 43 43 41 36 34 36 35 36 37 36 40 41 41 40 39 40 39 40 40 41 40 40 39 38 37 40 36 35 37 36 38 38 42 43 39 40 38 39 39 36 30 32 30 25 23 22 22 28 31 31 27 26 27 29 31 33 33 31 26 26 24 24 23 23 22 21 20 20 20 20 23 23 22 25 26 28 32 33 34 35 37 39
32 25 28 27 36 40 40 40 39 38 35 35 32 35 35 36 38 40 42 39 40 39 39 39 40 38 39 38 37 37 37 37 39 38 36 38 37 39 43 42 41 38 37 37 40 35 31 27 30 32 29 28 30 32 36 32 28 28 27 28 30 30 30 30 28 25 26 23 22 25 26 25 23 22 22 22 24 24 24 24 24 25 28 34 37 38 39 36
32 29 28 30 30 30 34 36 39 37 38 35 32 35 35 35 36 35 40 40 41 40 39 40 39 39 39 38 37 35 37 36 37 35 37 39 38 39 39 41 37 38 39 39 41 34 31 28 31 31 30 31 34 35 36 36 34 33 31 30 30 31 30 29 29 29 28 25 22 24 27 25 24 24 24 25 26 25 25 25 27 29 29 29 29 29 31 30
35 33 29 30 26 28 33 37 39 37 36 36 33 32 33 34 34 35 37 37 38 39 39 35 36 37 38 40 38 36 36 34 34 36 34 34 35 37 35 38 40 39 40 37 38 38 34 30 34 35 33 33 34 34 35 34 32 32 33 33 34 33 31 31 31 31 31 29 29 29 28 27 27 26 26 27 27 27 27 28 29 29 29 29 30 30 30 30
33 32 31 34 35 33 33 33 36 37 35 35 33 32 31 32 32 34 37 37 35 36 39 36 36 37 37 38 38 36 36 36 36 35 37 37 35 37 36 37 35 34 35 35 37 38 37 32 35 33 32 32 33 34 34 34 33 32 33 34 34 34 33 33 32 31 32 31 31 30 29 29 29 29 29 29 29 29 29 29 29 29 30 30 31 31 31 31
36 35 34 31 29 30 31 33 35 35 34 34 33 33 32 31 29 32 33 37 36 35 37 36 37 37 38 38 36 35 37 38 37 38 40 39 35 38 36 35 36 33 33 34 34 36 35 32 35 33 31 31 34 33 33 33 33 33 32 33 33 33 32 32 31 34 32 31 31 31 30 29 30 31 30 30 30 30 30 30 30 31 31 31 32 32 32 32
37 40 40 35 30 29 29 31 33 34 32 33 33 32 31 31 31 31 29 36 38 37 37 38 38 37 35 36 36 36 38 38 40 39 40 40 40 41 42 41 39 35 33 33 35 35 34 33 32 32 30 30 32 31 31 31 31 30 31 32 33 33 33 33 33 33 33 33 31 30 29 31 31 31 31 31 31 30 30 30 31 31 32 32 32 32 33 33